Regional Weather Roundup
Issued by NWS

Home | Current Version | Previous Version | Text Only | Print | Product List | Glossary Off
Versions: 1 2 3 4 5 6 7 8 9 10 11 12 13 14 15 16 17 18 19 20 21 22 23 24 25 26 27 28 29 30 31 32 33 34 35 36 37 38 39 40 41 42 43 44 45 46 47 48 49 50

000
ASUS43 KFSD 240510
RWRSD

WEATHER ROUNDUP FOR SOUTH DAKOTA
NATIONAL WEATHER SERVICE SIOUX FALLS SD
1100 PM CST THU FEB 23 2017

NOTE: "FAIR" INDICATES FEW OR NO CLOUDS BELOW 12,000 FEET WITH NO
SIGNIFICANT WEATHER AND/OR OBSTRUCTIONS TO VISIBILITY.


SDZ001>005-009-010-012>017-240600-
NORTHWEST AND NORTH CENTRAL SOUTH DAKOTA

CITY           SKY/WX    TMP DP  RH WIND       PRES   REMARKS
BUFFALO          N/A     25  23  92 NE15      29.97R WCI  13
FAITH            N/A     25  23  92 N18       30.03R WCI  11
MOBRIDGE       CLOUDY    28  19  69 N14       30.04R WCI  17
$$

SDZ012>016-024>037-041>051-057-063-072>074-240600-
SOUTHWEST AND SOUTH CENTRAL SOUTH DAKOTA

CITY           SKY/WX    TMP DP  RH WIND       PRES   REMARKS
RAPID CTY ARPT FLURRIES  25  21  85 NE14      29.98S WCI  13
PIERRE         CLOUDY    28  21  75 N16       29.99S WCI  16
CUSTER         LGT SNOW  18  14  84 NE7       29.85R VSB 1   WCI   9
ELLSWORTH AFB  FLURRIES  25  23  93 N7        29.98  WCI  17
PHILIP         CLOUDY    28  22  78 NE12      30.01R WCI  18
PINE RIDGE     LGT SNOW  24  22  91 NE10      29.94R FOG     WCI  14
SPEARFISH      FLURRIES  23  21  93 E14       29.98S WCI  11
WINNER         LGT SNOW  26  23  88 N17       29.93S VSB 1   WCI  13
$$

SDZ004>011-016>023-039-040-240600-
NORTHEAST SOUTH DAKOTA

CITY           SKY/WX    TMP DP  RH WIND       PRES   REMARKS
ABERDEEN       CLOUDY    23  15  71 N24       30.04S WCI   7
WATERTOWN      CLOUDY    22  18  85 N25G32    29.93S WCI   5
BROOKINGS      CLOUDY    26  22  84 N20G29    29.86S WCI  12
SISSETON         N/A     24  19  81 NE21      30.03S WCI   9
$$

SDZ017-020-022-023-036>040-048>070-240600-
SOUTHEAST SOUTH DAKOTA

CITY           SKY/WX    TMP DP  RH WIND       PRES   REMARKS
SIOUX FALLS    LGT SNOW  28  26  92 N21G30    29.83F VSB 1   WCI  15
HURON          CLOUDY    27  21  78 N17G25    29.94F WCI  14
CHAMBERLAIN    CLOUDY    28  24  83 N15G21    29.95S WCI  17
MITCHELL       CLOUDY    29  24  82 N20G26    29.91S WCI  16
YANKTON        CLOUDY    28  25  86 N23G30    29.79F WCI  14
$$

ABBREVIATIONS USED IN REMARKS
   TC - TEMPERATURE IN CELSIUS
  WCI - WIND CHILL INDEX
   HX - HEAT INDEX
  VSB - VISIBILITY





USA.gov is the U.S. government's official web portal to all federal, state and local government web resources and services.